Location: Taupo
(38.6830°S, 176.0830°E)
Time: 09:17:02
(UTC+13:00)

Cosmos 2237 - Pass Details

Date: 24 January 2019
Orbit: 845 x 857 km, 70.8° (Epoch: 21 February)

Event Time Altitude Azimuth Distance (km) Brightness Sun altitude
Exits shadow 22:25:17 21° 4° (N) 1,831 5.5 -18.0°
Maximum altitude 22:28:57 53° 72° (ENE) 1,049 4.3 -18.6°
Drops below altitude 10° 22:34:32 10° 147° (SSE) 2,503 6.8 -19.3°
Sets 22:37:03 0° 152° (SSE) 3,444 7.6 -19.6°
